{"data":{"norad_id":59955,"intl_designator":"2024-107L","name":"STARLINK-11144 [DTC]","alt_names":[],"object_type":"PAYLOAD","status":"ACTIVE","operator":null,"country":"US","launch_date":"2024-06-05","launch_site_code":"AFETR","launch_vehicle":null,"mission":null,"orbit_class":"UNKNOWN","rcs_meters":null,"size_class":null,"mass_kg":null,"dimensions":null,"purposes":["comms"],"wikipedia_slug":null,"has_3d_model":false,"image_url":null,"decayed_at":null,"tle_current":{"epoch":"2026-05-24T16:17:41.658432Z","epoch_age_seconds":99889,"freshness":"FRESH","line1":"1 59955U 24107L   26144.67895438  .00000343  00000+0  76924-5 0  9996","line2":"2 59955  53.1590 236.4693 0001186  83.4471 276.6682 15.69707486114145","mean_motion":15.69707486,"eccentricity":0.0001186,"inclination_deg":53.159,"raan_deg":236.4693,"arg_perigee_deg":83.4471,"mean_anomaly_deg":276.6682,"bstar":7.6924e-6,"rev_number":11414,"period_min":91.736837139604,"perigee_km":358.93483304105,"apogee_km":360.5330560291,"semimajor_km":6737.8709445351,"source":"CELESTRAK","updated_at":"2026-05-25T13:38:19.128582Z"}}}